Stündliche Wetter Barrancas

Heute, 23 Oktober, Freitag

Zeit Temperatur Niederschläge Wind Luftdruck Luftfeuchtigkeit
00:00 +29°C° 0 mm 3 m/S 756 mmHg 88%
01:00 +28°C° 0 mm 2 m/S 755 mmHg 90%
02:00 +28°C° 0.3 mm 2 m/S 755 mmHg 90%
03:00 +28°C° 0.3 mm 2 m/S 755 mmHg 90%
04:00 +27°C° 0.3 mm 2 m/S 755 mmHg 91%
05:00 +28°C° 0.4 mm 2 m/S 756 mmHg 89%
06:00 +28°C° 0.4 mm 2 m/S 756 mmHg 87%
07:00 +28°C° 0.4 mm 2 m/S 757 mmHg 85%
08:00 +30°C° 0.2 mm 2 m/S 757 mmHg 78%
09:00 +32°C° 0.2 mm 2 m/S 757 mmHg 70%
10:00 +35°C° 0.2 mm 3 m/S 757 mmHg 63%
11:00 +35°C° 0 mm 2 m/S 756 mmHg 61%
12:00 +36°C° 0 mm 2 m/S 755 mmHg 58%
13:00 +37°C° 0 mm 2 m/S 754 mmHg 56%
14:00 +36°C° 0.3 mm 2 m/S 753 mmHg 60%
15:00 +35°C° 0.3 mm 2 m/S 753 mmHg 64%
16:00 +34°C° 0.3 mm 2 m/S 753 mmHg 68%
17:00 +33°C° 0.1 mm 3 m/S 754 mmHg 72%
18:00 +32°C° 0.1 mm 4 m/S 754 mmHg 76%
19:00 +30°C° 0.1 mm 5 m/S 755 mmHg 80%
20:00 +30°C° 0.7 mm 5 m/S 755 mmHg 81%
21:00 +30°C° 0.7 mm 4 m/S 756 mmHg 82%
22:00 +29°C° 0.7 mm 4 m/S 756 mmHg 84%
23:00 +29°C° 0.2 mm 3 m/S 756 mmHg 85%

Morgen, 24 Oktober, Samstag

Zeit Temperatur Niederschläge Wind Luftdruck Luftfeuchtigkeit
00:00 +29°C° 0.2 mm 3 m/S 755 mmHg 86%
01:00 +28°C° 0.2 mm 2 m/S 755 mmHg 87%
02:00 +28°C° 0.1 mm 2 m/S 755 mmHg 88%
03:00 +28°C° 0.1 mm 2 m/S 755 mmHg 88%
04:00 +27°C° 0.1 mm 2 m/S 755 mmHg 89%
05:00 +28°C° 0.5 mm 2 m/S 755 mmHg 86%
06:00 +29°C° 0.5 mm 2 m/S 756 mmHg 84%
07:00 +29°C° 0.5 mm 3 m/S 756 mmHg 81%
08:00 +31°C° 0.2 mm 3 m/S 756 mmHg 74%
09:00 +33°C° 0.2 mm 3 m/S 756 mmHg 67%
10:00 +35°C° 0.2 mm 3 m/S 756 mmHg 61%
11:00 +35°C° 0.3 mm 2 m/S 756 mmHg 62%
12:00 +35°C° 0.3 mm 2 m/S 755 mmHg 62%
13:00 +35°C° 0.3 mm 2 m/S 754 mmHg 63%
14:00 +35°C° 0.4 mm 2 m/S 753 mmHg 66%
15:00 +34°C° 0.4 mm 2 m/S 753 mmHg 69%
16:00 +32°C° 0.4 mm 2 m/S 753 mmHg 72%
17:00 +31°C° 0.1 mm 3 m/S 754 mmHg 74%
18:00 +32°C° 0.1 mm 4 m/S 754 mmHg 77%
19:00 +30°C° 0.1 mm 4 m/S 755 mmHg 80%
20:00 +29°C° 0.5 mm 4 m/S 755 mmHg 80%
21:00 +29°C° 0.5 mm 3 m/S 755 mmHg 81%
22:00 +29°C° 0.5 mm 3 m/S 756 mmHg 82%
23:00 +29°C° 0.1 mm 3 m/S 755 mmHg 83%

übermorgen, 25 Oktober, Sonntag

Zeit Temperatur Niederschläge Wind Luftdruck Luftfeuchtigkeit
00:00 +28°C° 0.1 mm 3 m/S 755 mmHg 83%
01:00 +28°C° 0.1 mm 3 m/S 755 mmHg 84%
02:00 +28°C° 0.1 mm 3 m/S 755 mmHg 84%
03:00 +27°C° 0.1 mm 3 m/S 755 mmHg 83%
04:00 +27°C° 0.1 mm 3 m/S 755 mmHg 83%
05:00 +28°C° 0.3 mm 3 m/S 756 mmHg 82%
06:00 +28°C° 0.3 mm 2 m/S 756 mmHg 81%
07:00 +29°C° 0.3 mm 2 m/S 757 mmHg 80%
08:00 +30°C° 0 mm 2 m/S 757 mmHg 73%
09:00 +32°C° 0 mm 2 m/S 757 mmHg 66%
10:00 +35°C° 0 mm 2 m/S 758 mmHg 59%
11:00 +34°C° 0.7 mm 2 m/S 757 mmHg 62%
12:00 +34°C° 0.7 mm 2 m/S 756 mmHg 64%
13:00 +34°C° 0.7 mm 2 m/S 755 mmHg 67%
14:00 +32°C° 2.1 mm 2 m/S 755 mmHg 70%
15:00 +32°C° 2.1 mm 1 m/S 755 mmHg 72%
16:00 +32°C° 2.1 mm 1 m/S 754 mmHg 75%
17:00 +31°C° 0.6 mm 1 m/S 755 mmHg 77%
18:00 +30°C° 0.6 mm 2 m/S 755 mmHg 80%
19:00 +29°C° 0.6 mm 2 m/S 756 mmHg 83%
20:00 +28°C° 0.5 mm 2 m/S 756 mmHg 84%
21:00 +28°C° 0.5 mm 2 m/S 757 mmHg 86%
22:00 +28°C° 0.5 mm 2 m/S 757 mmHg 88%
23:00 +27°C° 0.8 mm 2 m/S 757 mmHg 88%

, 26 Oktober, Montag

Zeit Temperatur Niederschläge Wind Luftdruck Luftfeuchtigkeit
00:00 +27°C° 0.8 mm 2 m/S 756 mmHg 88%
01:00 +27°C° 0.8 mm 3 m/S 756 mmHg 88%
02:00 +27°C° 0.1 mm 3 m/S 756 mmHg 88%
03:00 +27°C° 0.1 mm 3 m/S 756 mmHg 89%
04:00 +26°C° 0.1 mm 3 m/S 756 mmHg 89%
05:00 +27°C° 0.1 mm 2 m/S 756 mmHg 87%
06:00 +28°C° 0.1 mm 2 m/S 757 mmHg 85%
07:00 +28°C° 0.1 mm 2 m/S 757 mmHg 83%
08:00 +30°C° 0.1 mm 2 m/S 757 mmHg 75%
09:00 +32°C° 0.1 mm 1 m/S 757 mmHg 67%
10:00 +33°C° 0.1 mm 1 m/S 758 mmHg 60%
11:00 +34°C° 0 mm 2 m/S 757 mmHg 60%
12:00 +34°C° 0 mm 2 m/S 756 mmHg 61%
13:00 +34°C° 0 mm 2 m/S 755 mmHg 61%
14:00 +34°C° 0 mm 3 m/S 755 mmHg 63%
15:00 +34°C° 0 mm 3 m/S 754 mmHg 66%
16:00 +33°C° 0 mm 4 m/S 754 mmHg 68%
17:00 +32°C° 0 mm 4 m/S 755 mmHg 71%
18:00 +30°C° 0 mm 5 m/S 755 mmHg 74%
19:00 +29°C° 0 mm 5 m/S 756 mmHg 77%
20:00 +29°C° 0 mm 5 m/S 756 mmHg 78%
21:00 +29°C° 0 mm 5 m/S 756 mmHg 79%
22:00 +28°C° 0 mm 5 m/S 757 mmHg 80%
23:00 +28°C° 0.1 mm 5 m/S 756 mmHg 81%

26 Oktober, Montag

Zeit Temperatur Niederschläge Wind Luftdruck Luftfeuchtigkeit
00:00 +27°C° 0.8 mm 2 m/S 756 mmHg 88%
01:00 +27°C° 0.8 mm 3 m/S 756 mmHg 88%
02:00 +27°C° 0.1 mm 3 m/S 756 mmHg 88%
03:00 +27°C° 0.1 mm 3 m/S 756 mmHg 89%
04:00 +26°C° 0.1 mm 3 m/S 756 mmHg 89%
05:00 +27°C° 0.1 mm 2 m/S 756 mmHg 87%
06:00 +28°C° 0.1 mm 2 m/S 757 mmHg 85%
07:00 +28°C° 0.1 mm 2 m/S 757 mmHg 83%
08:00 +30°C° 0.1 mm 2 m/S 757 mmHg 75%
09:00 +32°C° 0.1 mm 1 m/S 757 mmHg 67%
10:00 +33°C° 0.1 mm 1 m/S 758 mmHg 60%
11:00 +34°C° 0 mm 2 m/S 757 mmHg 60%
12:00 +34°C° 0 mm 2 m/S 756 mmHg 61%
13:00 +34°C° 0 mm 2 m/S 755 mmHg 61%
14:00 +34°C° 0 mm 3 m/S 755 mmHg 63%
15:00 +34°C° 0 mm 3 m/S 754 mmHg 66%
16:00 +33°C° 0 mm 4 m/S 754 mmHg 68%
17:00 +32°C° 0 mm 4 m/S 755 mmHg 71%
18:00 +30°C° 0 mm 5 m/S 755 mmHg 74%
19:00 +29°C° 0 mm 5 m/S 756 mmHg 77%
20:00 +29°C° 0 mm 5 m/S 756 mmHg 78%
21:00 +29°C° 0 mm 5 m/S 756 mmHg 79%
22:00 +28°C° 0 mm 5 m/S 757 mmHg 80%
23:00 +28°C° 0.1 mm 5 m/S 756 mmHg 81%

27 Oktober, Dienstag

Zeit Temperatur Niederschläge Wind Luftdruck Luftfeuchtigkeit
00:00 +28°C° 0.1 mm 4 m/S 756 mmHg 82%
01:00 +28°C° 0.1 mm 4 m/S 756 mmHg 83%
02:00 +27°C° 0 mm 3 m/S 755 mmHg 84%
03:00 +27°C° 0 mm 3 m/S 755 mmHg 85%
04:00 +27°C° 0 mm 3 m/S 755 mmHg 86%
05:00 +27°C° 0 mm 3 m/S 755 mmHg 84%
06:00 +28°C° 0 mm 2 m/S 756 mmHg 82%
07:00 +28°C° 0 mm 2 m/S 756 mmHg 81%
08:00 +30°C° 0 mm 2 m/S 756 mmHg 74%
09:00 +31°C° 0 mm 2 m/S 756 mmHg 68%
10:00 +34°C° 0 mm 2 m/S 756 mmHg 61%
11:00 +34°C° 0.2 mm 2 m/S 755 mmHg 62%
12:00 +34°C° 0.2 mm 2 m/S 755 mmHg 63%
13:00 +34°C° 0.2 mm 2 m/S 754 mmHg 63%
14:00 +34°C° 0.4 mm 2 m/S 753 mmHg 66%
15:00 +32°C° 0.4 mm 2 m/S 753 mmHg 68%
16:00 +32°C° 0.4 mm 2 m/S 752 mmHg 71%
17:00 +31°C° 0.2 mm 2 m/S 753 mmHg 74%
18:00 +30°C° 0.2 mm 3 m/S 754 mmHg 78%
19:00 +29°C° 0.2 mm 3 m/S 754 mmHg 81%
20:00 +29°C° 0.3 mm 4 m/S 755 mmHg 82%
21:00 +29°C° 0.3 mm 4 m/S 755 mmHg 83%
22:00 +28°C° 0.3 mm 4 m/S 755 mmHg 83%
23:00 +28°C° 0.3 mm 4 m/S 755 mmHg 84%

28 Oktober, Mittwoch

Zeit Temperatur Niederschläge Wind Luftdruck Luftfeuchtigkeit
00:00 +28°C° 0.3 mm 3 m/S 755 mmHg 85%
01:00 +27°C° 0.3 mm 3 m/S 754 mmHg 86%
02:00 +27°C° 0.1 mm 2 m/S 754 mmHg 87%
03:00 +27°C° 0.1 mm 2 m/S 754 mmHg 87%
04:00 +26°C° 0.1 mm 2 m/S 754 mmHg 87%
05:00 +27°C° 0.1 mm 2 m/S 754 mmHg 85%
06:00 +27°C° 0.1 mm 1 m/S 755 mmHg 83%
07:00 +28°C° 0.1 mm 1 m/S 755 mmHg 81%
08:00 +30°C° 0.1 mm 1 m/S 755 mmHg 75%
09:00 +31°C° 0.1 mm 1 m/S 755 mmHg 69%
10:00 +33°C° 0.1 mm 1 m/S 755 mmHg 63%
11:00 +34°C° 0 mm 1 m/S 755 mmHg 60%
12:00 +34°C° 0 mm 1 m/S 754 mmHg 58%
13:00 +35°C° 0 mm 1 m/S 753 mmHg 55%
14:00 +34°C° 0 mm 1 m/S 753 mmHg 58%
15:00 +34°C° 0 mm 2 m/S 752 mmHg 62%
16:00 +32°C° 0 mm 2 m/S 752 mmHg 65%
17:00 +31°C° 0.1 mm 2 m/S 753 mmHg 69%
18:00 +30°C° 0.1 mm 3 m/S 754 mmHg 74%
19:00 +29°C° 0.1 mm 3 m/S 754 mmHg 78%
20:00 +29°C° 0 mm 3 m/S 755 mmHg 80%
21:00 +29°C° 0 mm 4 m/S 755 mmHg 81%
22:00 +29°C° 0 mm 4 m/S 755 mmHg 82%
23:00 +28°C° 0.2 mm 3 m/S 755 mmHg 83%
Mehr zeigen